DW3735 Weather Reports


time (UTC)temp
C
wind
direction
speed
KPH
gust
KPH
rain 1hr
cm
rain 24hr
cm
rain mn
cm
humidity
%
barometer
mb
20260510083017 7 0.0 0.0 0.00 0.53 0.00 74 1003.8
20260510082035 7 0.0 0.0 0.00 0.53 0.00 75 1003.6
20260510081037 7 0.0 0.0 0.00 0.53 0.00 75 1003.5
20260510080017 7 0.0 0.0 0.00 0.53 0.00 75 1003.3
20260510075037 7 0.0 0.0 0.00 0.53 0.00 75 1003.1
20260510074017 8 0.0 0.0 0.00 0.53 0.00 75 1002.9
20260510073017 8 0.0 0.0 0.00 0.53 0.00 76 1002.8
20260510072016 8 0.0 0.0 0.00 0.53 0.00 78 1002.8
20260510071015 8 0.0 4.8 0.00 0.53 0.00 77 1002.7
20260510070015 8 0.0 3.2 0.00 0.53 0.00 78 1002.6
20260510065015 8 0.0 0.0 0.00 0.53 0.00 78 1002.4
20260510064036 8 0.0 3.2 0.00 0.53 0.00 78 1002.3
20260510063016 8 225 3.2 4.8 0.00 0.53 0.00 79 1002.1
20260510062015 9 270 1.6 4.8 0.00 0.53 0.00 79 1002.0
20260510061015 9 225 1.6 4.8 0.00 0.53 0.00 79 1001.9
20260510060015 9 225 1.6 6.4 0.00 0.53 0.00 79 1001.7
20260510055016 9 248 1.6 3.2 0.00 0.53 0.00 79 1001.6
20260510054015 9 225 1.6 4.8 0.00 0.53 0.00 79 1001.5
20260510053015 10 225 3.2 6.4 0.00 0.53 0.00 80 1001.4
20260510052015 10 225 3.2 6.4 0.00 0.53 0.00 81 1001.5
20260510051015 10 203 3.2 8.0 0.00 0.53 0.00 81 1001.3
20260510050015 9 158 3.2 8.0 0.00 0.53 0.00 83 1001.3
20260510045015 9 0.0 0.0 0.00 0.53 0.00 84 1001.2
20260510044035 9 0.0 0.0 0.00 0.53 0.00 86 1001.1
20260510043015 9 0.0 3.2 0.00 0.53 0.00 87 1001.1
20260510042016 9 0.0 8.0 0.00 0.53 0.00 87 1001.2
20260510041016 8 0.0 0.0 0.03 0.53 0.00 86 1001.1
20260510040015 8 0.0 0.0 0.08 0.53 0.00 85 1000.9
20260510035015 8 0.0 1.6 0.15 0.53 0.53 84 1000.9
20260510034016 9 158 3.2 6.4 0.41 0.53 0.53 83 1001.0
20260510033016 9 158 3.2 8.0 0.48 0.53 0.53 83 1000.9
20260510032016 9 158 3.2 8.0 0.53 0.53 0.53 84 1001.0
20260510031016 9 0.0 0.0 0.51 0.51 0.51 82 1001.3
20260510030016 9 225 1.6 6.4 0.46 0.46 0.46 80 1001.7
20260510025016 10 270 1.6 11.3 0.41 0.41 0.41 76 1001.5
20260510024016 11 248 8.0 16.1 0.15 0.15 0.15 72 1001.5
20260510023016 12 158 3.2 8.0 0.05 0.05 0.05 65 999.5
20260510022016 13 158 6.4 12.9 0.00 0.00 0.00 58 999.4
20260510021016 13 135 11.3 17.7 0.00 0.00 0.00 56 999.5
20260510020016 13 135 6.4 12.9 0.00 0.00 0.00 55 999.8
20260510015015 13 158 6.4 11.3 0.00 0.00 0.00 53 1000.2
20260510014016 13 135 8.0 16.1 0.00 0.00 0.00 52 1000.3
20260510013016 13 180 8.0 19.3 0.00 0.00 0.00 52 1000.7
20260510012015 13 158 11.3 19.3 0.00 0.00 0.00 51 1000.8
20260510011016 14 180 6.4 12.9 0.00 0.00 0.00 49 1001.0
20260510010016 14 180 8.0 24.1 0.00 0.00 0.00 47 1001.1
20260510005016 15 180 6.4 16.1 0.00 0.00 0.00 44 1001.3
20260510004036 15 203 6.4 14.5 0.00 0.00 0.00 42 1001.1
20260510003016 15 203 6.4 12.9 0.00 0.00 0.00 40 1000.8
20260510002016 15 203 4.8 9.7 0.00 0.00 0.00 40 1001.1
20260510001016 15 180 8.0 16.1 0.00 0.00 0.00 40 1001.1
20260510000016 15 180 9.7 22.5 0.00 0.00 0.00 39 1001.0
20260509235016 16 180 11.3 25.7 0.00 0.00 0.00 38 1001.2
20260509234016 16 158 9.7 20.9 0.00 0.00 0.00 40 1001.1
20260509233016 16 180 9.7 19.3 0.00 0.00 0.00 40 1001.0
20260509232015 16 180 8.0 16.1 0.00 0.00 0.00 38 1001.2
20260509231016 16 225 8.0 16.1 0.00 0.00 0.00 40 1001.5
20260509230036 16 180 8.0 19.3 0.00 0.00 0.00 36 1001.2
20260509225016 16 158 6.4 11.3 0.00 0.00 0.00 35 1001.1
20260509224016 16 180 11.3 22.5 0.00 0.00 0.00 33 1001.4
20260509223015 16 180 6.4 9.7 0.00 0.00 0.00 32 1001.3
20260509222036 17 180 4.8 14.5 0.00 0.00 0.00 32 1001.3
20260509221036 17 180 6.4 12.9 0.00 0.00 0.00 29 1001.3
20260509220036 17 158 6.4 11.3 0.00 0.00 0.00 31 1001.3
20260509215016 17 158 8.0 24.1 0.00 0.00 0.00 27 1001.5
20260509214016 17 158 6.4 12.9 0.00 0.00 0.00 28 1001.5
20260509213016 17 158 11.3 20.9 0.00 0.00 0.00 28 1001.7
20260509212015 17 158 11.3 17.7 0.00 0.00 0.00 28 1001.8
20260509211016 17 158 8.0 17.7 0.00 0.00 0.00 28 1001.8
20260509210036 17 180 8.0 17.7 0.00 0.00 0.00 30 1001.9
20260509205016 17 158 12.9 24.1 0.00 0.00 0.00 27 1001.9
20260509204016 17 158 9.7 17.7 0.00 0.00 0.00 27 1002.0
20260509203016 17 158 12.9 27.4 0.00 0.00 0.00 27 1002.2
20260509202016 17 135 14.5 25.7 0.00 0.00 0.00 29 1002.2
20260509201016 17 180 6.4 11.3 0.00 0.00 0.00 27 1002.4
20260509200016 17 158 11.3 22.5 0.00 0.00 0.00 26 1002.3
20260509195016 17 180 11.3 27.4 0.00 0.00 0.00 27 1002.4
20260509194016 17 158 11.3 22.5 0.00 0.00 0.00 27 1002.4
20260509193015 16 135 11.3 20.9 0.00 0.00 0.00 27 1002.7
20260509192035 17 203 8.0 22.5 0.00 0.00 0.00 27 1002.6
20260509191016 17 158 12.9 32.2 0.00 0.00 0.00 30 1002.8
20260509190016 16 135 11.3 22.5 0.00 0.00 0.00 29 1002.9
20260509185015 16 135 12.9 27.4 0.00 0.00 0.00 27 1003.2
20260509184036 16 135 12.9 20.9 0.00 0.00 0.00 30 1003.3
20260509183015 16 135 12.9 22.5 0.00 0.00 0.00 32 1003.6
20260509182015 16 158 12.9 29.0 0.00 0.00 0.00 34 1003.8
20260509181016 16 135 9.7 17.7 0.00 0.00 0.00 34 1003.9
20260509180016 16 158 11.3 20.9 0.00 0.00 0.00 35 1003.8
20260509175016 16 158 12.9 22.5 0.00 0.00 0.00 34 1004.1
20260509174016 16 135 16.1 22.5 0.00 0.00 0.00 33 1004.3
20260509173035 16 180 4.8 11.3 0.00 0.00 0.00 33 1004.3
20260509172016 16 158 14.5 27.4 0.00 0.00 0.00 31 1004.3
20260509171016 16 180 9.7 22.5 0.00 0.00 0.00 29 1004.4
20260509170016 17 225 6.4 12.9 0.00 0.00 0.00 30 1004.5
20260509165016 16 180 4.8 12.9 0.00 0.00 0.00 30 1004.8
20260509164016 16 203 6.4 14.5 0.00 0.00 0.00 29 1005.2
20260509163016 16 225 8.0 14.5 0.00 0.00 0.00 31 1005.1
20260509162016 16 225 6.4 14.5 0.00 0.00 0.00 31 1005.3
20260509161016 16 203 6.4 9.7 0.00 0.00 0.00 30 1005.5
20260509160036 16 225 6.4 12.9 0.00 0.00 0.00 30 1005.8
20260509155015 16 180 6.4 12.9 0.00 0.00 0.00 33 1005.9
20260509154016 15 180 4.8 6.4 0.00 0.00 0.00 34 1006.1
20260509153016 15 180 6.4 11.3 0.00 0.00 0.00 37 1006.2
20260509152016 15 180 4.8 16.1 0.00 0.00 0.00 35 1006.4
20260509151016 15 180 8.0 14.5 0.00 0.00 0.00 36 1006.5
20260509150016 15 180 6.4 14.5 0.00 0.00 0.00 36 1006.7
20260509145036 14 180 3.2 9.7 0.00 0.00 0.00 38 1006.8
20260509144036 13 203 4.8 8.0 0.00 0.00 0.00 36 1006.8
20260509143016 13 158 4.8 8.0 0.00 0.00 0.00 39 1006.9
20260509142016 13 180 6.4 14.5 0.00 0.00 0.00 39 1007.1
20260509141016 13 203 1.6 4.8 0.00 0.00 0.00 42 1007.1
20260509140016 12 225 1.6 3.2 0.00 0.00 0.00 43 1007.3
20260509135016 12 225 1.6 8.0 0.00 0.00 0.00 45 1007.2
20260509134016 12 180 3.2 6.4 0.00 0.00 0.00 44 1007.2
20260509133016 11 180 3.2 4.8 0.00 0.00 0.00 44 1007.2
20260509132016 11 225 3.2 8.0 0.00 0.00 0.00 45 1007.3
20260509131016 11 225 3.2 4.8 0.00 0.00 0.00 45 1007.3
20260509130016 11 180 3.2 4.8 0.00 0.00 0.00 47 1007.4
20260509125016 11 180 3.2 4.8 0.00 0.00 0.00 45 1007.4
20260509124016 11 203 3.2 8.0 0.00 0.00 0.00 48 1007.6
20260509123016 10 158 3.2 6.4 0.00 0.00 0.00 47 1007.7
20260509122036 10 225 3.2 6.4 0.00 0.00 0.00 49 1007.7
20260509121016 10 203 3.2 14.5 0.00 0.00 0.00 49 1007.6
20260509120036 10 203 4.8 8.0 0.00 0.00 0.00 49 1007.7
20260509115036 9 158 4.8 8.0 0.00 0.00 0.00 50 1007.7
20260509114016 8 158 3.2 4.8 0.00 0.00 0.00 54 1007.9
20260509113036 8 158 1.6 6.4 0.00 0.00 0.00 53 1007.7
20260509112016 8 158 1.6 4.8 0.00 0.00 0.00 56 1007.6
20260509111015 7 0.0 1.6 0.00 0.00 0.00 57 1007.6
20260509110016 7 158 1.6 4.8 0.00 0.00 0.00 59 1007.6
20260509105016 7 0.0 3.2 0.00 0.00 0.00 60 1007.5
20260509104016 7 158 3.2 6.4 0.00 0.00 0.00 61 1007.4
20260509103016 7 158 1.6 6.4 0.00 0.00 0.00 62 1007.4
20260509102016 6 0.0 0.0 0.00 0.00 0.00 62 1007.4
20260509101016 7 0.0 3.2 0.00 0.00 0.00 62 1007.3
20260509100016 7 0.0 3.2 0.00 0.00 0.00 63 1007.3
20260509095016 7 158 3.2 4.8 0.00 0.00 0.00 62 1007.2
20260509094015 7 158 3.2 4.8 0.00 0.00 0.00 62 1007.1
20260509093016 7 0.0 4.8 0.00 0.00 0.00 61 1007.1
20260509092016 7 0.0 0.0 0.00 0.00 0.00 60 1007.1
20260509091016 7 0.0 0.0 0.00 0.00 0.00 60 1006.9
20260509090016 7 0.0 0.0 0.00 0.00 0.00 60 1007.0
20260509085016 7 0.0 0.0 0.00 0.00 0.00 60 1007.0
20260509084016 7 0.0 0.0 0.00 0.00 0.00 61 1007.2